FENGYUN 1C DEB

Satellite information

Favourite Embed

Satellite Type and Status

DEBRISIN ORBIT

Key statistics

Satellite FENGYUN 1C DEB at a glance.

Uptime

9666

Days in orbit

Revolutions

≈ 14.4

Per day

Orbit

SSO

Sun Synchronous Orbit

Inclination

98.3

Latest

Satellite identification and parameters

Extended collection of information and parameters for FENGYUN 1C DEB.

Object identification

Identified? True

Debris? True

Object name: FENGYUN 1C DEB

International designator: 1999-025FS

Object number (NORAD): 29872

Object ID (CCSDS): 29872

Country: PEOPLES REPUBLIC OF CHINA (PRC)

Current information (Y/N): Y

RCS size: SMALL

Orbital parameters

Period: 100.097 minutes

Inclination: 98.3499 deg

SMA: 7141.264 km

Apoapsis: 933.392 km

Periapsis: 592.866 km

RAAN: 315.7802 deg

Eccentricy: 0.02384218

Argument of periapsis: 98.1931 deg

Mean anomaly: 264.6372 deg

Mean motion: 14.38600297 rev/day

Mean motion (dot): 0.0000327 rev/day2

B* drag term: 0.00077757118 1/REarth

Two-line elements (TLE)

Creation date: Oct. 26, 2025, 2:54 a.m.

Reference frame: TEME

Reference center: EARTH

Epoch: Oct. 25, 2025, 1:14 p.m. UTC

TLE line 0: 0 FENGYUN 1C DEB

TLE line 1: 1 29872U 99025FS 25298.55148614 .00003270 00000-0 77757-3 0 9991

TLE line 2: 2 29872 98.3499 315.7802 0238422 98.1931 264.6372 14.38600297978992

Live tracking on map

Real-time ground track for satellite FENGYUN 1C DEB.

In-orbit conjunctions

A list of the most updated potential collisions computed for object FENGYUN 1C DEB.

Target Orbit TCA Probability of collision Miss distance Type
DELTA 1 DEB SSO 2025-06-15 17:40:02 0.0001685875 465.0 (m) DEBRIS
CZ-6A DEB LEO 2024-11-11 06:12:24 0.0005093313 886.0 (m) DEBRIS

Associated space launch

Chinese polar orbiting meteorological satellite

FENGYUN 1C DEB was lifted into orbit during the mission ‘Long March 4B | Feng Yun 1C’, on board a Long March 4B space rocket.

The launch took place on May 10, 1999, 1:33 a.m. from Launch Complex 7.

For more information about the launch, click the button.

Launch to space Long March 4B | Feng Yun 1C
Long March 4B | Feng Yun 1C

Agency: N/A

Status: Launch Successful

Launch date: May 10, 1999, 1:33 a.m. UTC

Rocket: Long March 4B

Launch pad: Launch Complex 7

Location: Taiyuan Satellite Launch Center, People's Republic of China

...

Latest news about this satellite

There are no fresh news available about this satellite. Check back as we update our databases every day.


Newsletter sign-up

Weekly statistics, charts and insights to help you stay on top of the space industry.